Home > Time Zones > World Clock > Weather > U.S.A. > Nome > Past weeks

Flag for U.S.A. Weather past 2 weeks in Nome, Alaska, U.S.A.

Now
51 °F

Passing clouds.


Feels Like: 45 °F
Forecast: 36 / 47 °F
Wind: 21 mph from North

Location: Nome Airport

Current Time: Sep 19, 2014 at 6:37:51 PM

Latest Report: Sep 19, 2014 at 5:53 PM


Visibility: 10 mi

Pressure: 29.53 "Hg

Humidity: 59%

Dew point: 37 °F

Location of NomeLocation

Historic Weather in Nome — Graph

°F

Nome temperature yesterday

Maximum temperature yesterday: 53 °F (at 2:53 PM)
Minimum temperature yesterday: 43 °F (at 10:53 PM)
Average temperature yesterday: 48 °F

Past Weeks' High & Low Weather Summary

 TemperatureHumidityPressure
High64 °F (Sep 12, 3:53 PM)100% (Sep 9, 1:00 AM)30.18 "Hg (Sep 9, 1:00 AM)
Low33 °F (Sep 6, 5:53 AM)27% (Sep 5, 4:53 PM)29.29 "Hg (Sep 12, 10:53 PM)
Average50 °F76%29.68 "Hg
* Reported Sep 4 6:53 PM — Sep 19 4:53 PM, Nome, Weather by CustomWeather, © 2014

Note: Actual official high and low records may vary slightly from our data, if they occured in-between our weather recording intervals... More about our weather records

Advertising

Nome weather history for previous 24 hours

 ConditionsComfort  
Time TempWeatherWind HumidityBarometerVisibility
4:53 PM
Sep 19
51 °FPassing clouds.16 mph54%29.52 "Hg10 mi
3:53 PM52 °FPassing clouds.13 mph55%29.52 "Hg10 mi
2:53 PM51 °FPassing clouds.16 mph56%29.50 "Hg10 mi
1:53 PM50 °FPassing clouds.17 mph59%29.49 "Hg10 mi
12:53 PM49 °FPassing clouds.16 mph61%29.49 "Hg10 mi
11:53 AM48 °FPassing clouds.9 mph66%29.47 "Hg10 mi
10:53 AM48 °FPassing clouds.5 mph66%29.45 "Hg10 mi
9:53 AM46 °FScattered clouds.17 mph68%29.43 "Hg10 mi
8:53 AM44 °FPassing clouds.8 mph73%29.41 "Hg10 mi
7:53 AM44 °FPassing clouds.7 mph76%29.40 "Hg10 mi
6:53 AM46 °FPassing clouds.7 mph68%29.39 "Hg10 mi
5:53 AM43 °FClear.9 mph79%29.37 "Hg10 mi
4:53 AM42 °FPassing clouds.8 mph79%29.36 "Hg10 mi
3:53 AM45 °FPassing clouds.6 mph71%29.35 "Hg10 mi
2:53 AM42 °FPassing clouds.9 mph79%29.35 "Hg10 mi
1:53 AM42 °FPassing clouds.9 mph82%29.34 "Hg10 mi
12:53 AM43 °FPassing clouds.10 mph76%29.34 "Hg10 mi
11:53 PM
Sep 18
43 °FPassing clouds.8 mph76%29.33 "Hg10 mi
10:53 PM43 °FClear.9 mph76%29.32 "Hg10 mi
9:53 PM44 °FScattered clouds.15 mph73%29.32 "Hg10 mi
8:53 PM46 °FScattered clouds.16 mph68%29.31 "Hg10 mi
7:53 PM49 °FScattered clouds.17 mph66%29.31 "Hg10 mi
6:53 PM51 °FScattered clouds.18 mph61%29.31 "Hg10 mi
Weather by CustomWeather, © 2014

See weather overviewHow to use our weather pages